Time,TemperatureF,DewpointF,PressureIn,WindDirection,WindDirectionDegrees,WindSpeedMPH,WindSpeedGustMPH,Humidity,HourlyPrecipIn,Conditions,Clouds,dailyrainin,SoftwareType,DateUTC
2013-03-17 00:00:00,5.0,0.9,30.19,ESE,102,3.0,12.0,83,0.00,,,0.00,VWS V14.01,2013-03-17 05:00:00,
2013-03-17 00:05:00,5.1,1.0,30.19,ESE,105,5.0,8.0,83,0.00,,,0.00,VWS V14.01,2013-03-17 05:05:00,
2013-03-17 00:10:00,5.2,1.1,30.19,ESE,116,2.0,10.0,83,0.00,,,0.00,VWS V14.01,2013-03-17 05:10:00,
2013-03-17 00:15:00,5.2,1.1,30.17,East,84,5.0,10.0,83,0.00,,,0.00,VWS V14.01,2013-03-17 05:15:00,
2013-03-17 00:20:00,5.1,1.0,30.17,East,96,7.0,9.0,83,0.00,,,0.00,VWS V14.01,2013-03-17 05:20:00,
2013-03-17 00:25:00,5.1,1.0,30.17,East,88,8.0,9.0,83,0.00,,,0.00,VWS V14.01,2013-03-17 05:25:00,
2013-03-17 00:30:00,5.1,1.0,30.17,ESE,114,4.0,9.0,83,0.00,,,0.00,VWS V14.01,2013-03-17 05:30:00,
2013-03-17 00:35:00,5.1,1.0,30.17,ESE,103,4.0,13.0,83,0.00,,,0.00,VWS V14.01,2013-03-17 05:35:00,
2013-03-17 00:40:00,5.1,1.0,30.16,SE,130,6.0,13.0,83,0.00,,,0.00,VWS V14.01,2013-03-17 05:40:00,
2013-03-17 00:45:00,5.0,0.9,30.16,SE,125,6.0,13.0,83,0.00,,,0.00,VWS V14.01,2013-03-17 05:45:00,
2013-03-17 00:50:00,5.1,1.0,30.16,ESE,117,5.0,8.0,83,0.00,,,0.00,VWS V14.01,2013-03-17 05:50:00,
2013-03-17 00:55:00,5.1,1.0,30.15,ESE,111,7.0,9.0,83,0.00,,,0.00,VWS V14.01,2013-03-17 05:55:00,
2013-03-17 01:00:00,5.1,1.3,30.15,ESE,113,8.0,10.0,84,0.00,,,0.00,VWS V14.01,2013-03-17 06:00:00,
2013-03-17 01:05:00,5.1,1.3,30.15,ESE,113,8.0,8.0,84,0.00,,,0.00,VWS V14.01,2013-03-17 06:05:00,
2013-03-17 01:10:00,5.2,1.4,30.14,ESE,103,5.0,9.0,84,0.00,,,0.00,VWS V14.01,2013-03-17 06:10:00,
2013-03-17 01:15:00,5.4,1.5,30.15,ESE,123,9.0,9.0,84,0.00,,,0.00,VWS V14.01,2013-03-17 06:15:00,
2013-03-17 01:20:00,5.4,1.5,30.14,East,94,5.0,11.0,84,0.00,,,0.00,VWS V14.01,2013-03-17 06:20:00,
2013-03-17 01:25:00,5.5,1.6,30.14,SE,130,7.0,12.0,84,0.00,,,0.00,VWS V14.01,2013-03-17 06:25:00,
2013-03-17 01:30:00,5.6,1.8,30.14,ESE,111,9.0,12.0,84,0.00,,,0.00,VWS V14.01,2013-03-17 06:30:00,
2013-03-17 01:35:00,5.7,1.8,30.13,SE,134,6.0,12.0,84,0.00,,,0.00,VWS V14.01,2013-03-17 06:35:00,
2013-03-17 01:40:00,5.8,1.9,30.13,SE,142,6.0,12.0,84,0.00,,,0.00,VWS V14.01,2013-03-17 06:40:00,
2013-03-17 01:45:00,6.0,2.1,30.13,SSE,149,3.0,12.0,84,0.00,,,0.00,VWS V14.01,2013-03-17 06:45:00,
2013-03-17 01:50:00,6.0,2.1,30.13,SE,126,5.0,11.0,84,0.00,,,0.00,VWS V14.01,2013-03-17 06:50:00,
2013-03-17 01:55:00,6.2,2.3,30.13,SSE,157,8.0,12.0,84,0.00,,,0.00,VWS V14.01,2013-03-17 06:55:00,
2013-03-17 02:00:00,6.2,2.3,30.12,SE,133,9.0,13.0,84,0.00,,,0.00,VWS V14.01,2013-03-17 07:00:00,
2013-03-17 02:05:00,6.2,2.1,30.11,SE,128,11.0,13.0,83,0.00,,,0.00,VWS V14.01,2013-03-17 07:05:00,
2013-03-17 02:10:00,6.2,2.1,30.11,SE,126,4.0,15.0,83,0.00,,,0.00,VWS V14.01,2013-03-17 07:10:00,
2013-03-17 02:15:00,6.3,2.2,30.10,ESE,117,13.0,15.0,83,0.00,,,0.00,VWS V14.01,2013-03-17 07:15:00,
2013-03-17 02:20:00,6.3,2.2,30.10,ESE,106,5.0,13.0,83,0.00,,,0.00,VWS V14.01,2013-03-17 07:20:00,
2013-03-17 02:25:00,6.4,2.3,30.09,East,94,8.0,13.0,83,0.00,,,0.00,VWS V14.01,2013-03-17 07:25:00,
2013-03-17 02:30:00,6.5,2.4,30.09,SE,134,12.0,16.0,83,0.00,,,0.00,VWS V14.01,2013-03-17 07:30:00,
2013-03-17 02:35:00,6.6,2.5,30.08,East,89,6.0,11.0,83,0.00,,,0.00,VWS V14.01,2013-03-17 07:35:00,
2013-03-17 02:40:00,6.6,2.2,30.08,SE,132,12.0,14.0,82,0.00,,,0.00,VWS V14.01,2013-03-17 07:40:00,
2013-03-17 02:45:00,6.6,2.2,30.08,ESE,121,7.0,15.0,82,0.00,,,0.00,VWS V14.01,2013-03-17 07:45:00,
2013-03-17 02:50:00,6.7,2.3,30.08,ESE,121,7.0,11.0,82,0.00,,,0.00,VWS V14.01,2013-03-17 07:50:00,
2013-03-17 02:55:00,6.7,2.3,30.08,SE,134,16.0,16.0,82,0.00,,,0.00,VWS V14.01,2013-03-17 07:55:00,
2013-03-17 03:00:00,6.7,2.0,30.08,ESE,114,7.0,18.0,81,0.00,,,0.00,VWS V14.01,2013-03-17 08:00:00,
2013-03-17 03:05:00,6.7,2.0,30.07,ESE,105,8.0,18.0,81,0.00,,,0.00,VWS V14.01,2013-03-17 08:05:00,
2013-03-17 03:10:00,6.7,2.0,30.07,ESE,105,8.0,18.0,81,0.00,,,0.00,VWS V14.01,2013-03-17 08:10:00,
2013-03-17 03:15:00,6.6,1.9,30.07,SE,138,9.0,18.0,81,0.00,,,0.00,VWS V14.01,2013-03-17 08:15:00,
2013-03-17 03:20:00,6.5,1.8,30.06,SE,130,6.0,17.0,81,0.00,,,0.00,VWS V14.01,2013-03-17 08:20:00,
2013-03-17 03:25:00,6.6,2.2,30.06,ESE,121,10.0,17.0,82,0.00,,,0.00,VWS V14.01,2013-03-17 08:25:00,
2013-03-17 03:30:00,6.6,2.2,30.05,SE,131,18.0,20.0,82,0.00,,,0.00,VWS V14.01,2013-03-17 08:30:00,
2013-03-17 03:35:00,6.7,2.3,30.05,ESE,123,12.0,15.0,82,0.00,,,0.00,VWS V14.01,2013-03-17 08:35:00,
2013-03-17 03:40:00,6.9,2.8,30.04,ESE,104,9.0,18.0,83,0.00,,,0.00,VWS V14.01,2013-03-17 08:40:00,
2013-03-17 03:45:00,6.9,2.8,30.04,SE,130,13.0,19.0,83,0.00,,,0.00,VWS V14.01,2013-03-17 08:45:00,
2013-03-17 03:49:00,7.0,2.9,30.04,SE,132,10.0,14.0,83,0.00,,,0.00,VWS V14.01,2013-03-17 08:49:00,
2013-03-17 03:54:00,7.1,3.0,30.03,SSE,151,12.0,19.0,83,0.00,,,0.00,VWS V14.01,2013-03-17 08:54:00,
2013-03-17 03:59:00,7.2,3.3,30.02,East,86,11.0,19.0,84,0.00,,,0.00,VWS V14.01,2013-03-17 08:59:00,
2013-03-17 04:00:00,6.7,2.0,30.07,SSE,157,12.0,18.0,81,0.00,,,0.00,VWS V14.01,2013-03-17 09:00:00,
2013-03-17 04:04:00,7.2,3.3,30.01,ESE,121,20.0,23.0,84,0.00,,,0.00,VWS V14.01,2013-03-17 09:04:00,
2013-03-17 04:09:00,7.2,3.3,30.01,SE,127,12.0,23.0,84,0.00,,,0.00,VWS V14.01,2013-03-17 09:09:00,
2013-03-17 04:14:00,7.2,5.5,30.01,ESE,116,16.0,23.0,93,0.00,,,0.00,VWS V14.01,2013-03-17 09:14:00,
2013-03-17 04:15:00,6.6,1.9,30.07,ESE,115,10.0,18.0,81,0.00,,,0.00,VWS V14.01,2013-03-17 09:15:00,
2013-03-17 04:19:00,7.2,3.3,30.01,SE,134,9.0,18.0,84,0.00,,,0.00,VWS V14.01,2013-03-17 09:19:00,
2013-03-17 04:24:00,7.3,3.4,30.01,ESE,109,5.0,19.0,84,0.00,,,0.00,VWS V14.01,2013-03-17 09:24:00,
2013-03-17 04:29:00,7.3,3.4,30.00,SE,125,12.0,19.0,84,0.00,,,0.00,VWS V14.01,2013-03-17 09:29:00,
2013-03-17 04:30:00,6.6,2.2,30.05,ESE,102,8.0,20.0,82,0.00,,,0.00,VWS V14.01,2013-03-17 09:30:00,
2013-03-17 04:34:00,7.3,3.4,30.00,SE,144,10.0,18.0,84,0.00,,,0.00,VWS V14.01,2013-03-17 09:34:00,
2013-03-17 04:39:00,7.3,3.4,29.99,SE,130,12.0,20.0,84,0.00,,,0.00,VWS V14.01,2013-03-17 09:39:00,
2013-03-17 04:44:00,7.3,3.4,29.99,SE,134,11.0,20.0,84,0.00,,,0.00,VWS V14.01,2013-03-17 09:44:00,
2013-03-17 04:45:00,6.9,2.8,30.04,ESE,113,14.0,19.0,83,0.00,,,0.00,VWS V14.01,2013-03-17 09:45:00,
2013-03-17 04:49:00,7.3,3.4,29.99,ESE,123,7.0,18.0,84,0.00,,,0.00,VWS V14.01,2013-03-17 09:49:00,
2013-03-17 04:54:00,7.2,3.3,29.99,SSE,148,16.0,20.0,84,0.00,,,0.00,VWS V14.01,2013-03-17 09:54:00,
2013-03-17 04:59:00,7.3,3.4,29.99,SSE,161,15.0,21.0,84,0.00,,,0.00,VWS V14.01,2013-03-17 09:59:00,
2013-03-17 05:00:00,7.3,3.4,30.02,SSE,161,11.0,19.0,84,0.00,,,0.00,VWS V14.01,2013-03-17 10:00:00,
2013-03-17 05:04:00,7.3,3.4,29.98,SSE,155,13.0,19.0,84,0.00,,,0.00,VWS V14.01,2013-03-17 10:04:00,
2013-03-17 05:09:00,7.4,3.8,29.98,SE,133,11.0,22.0,85,0.00,,,0.00,VWS V14.01,2013-03-17 10:09:00,
2013-03-17 05:15:00,7.5,3.9,29.98,SE,134,10.0,22.0,85,0.00,,,0.00,VWS V14.01,2013-03-17 10:15:00,
2013-03-17 05:20:00,7.6,4.0,29.97,SE,142,17.0,18.0,85,0.00,,,0.00,VWS V14.01,2013-03-17 10:20:00,
2013-03-17 05:25:00,7.7,4.1,29.97,SSE,163,11.0,18.0,85,0.00,,,0.00,VWS V14.01,2013-03-17 10:25:00,
2013-03-17 05:30:00,7.8,4.2,29.96,SE,129,14.0,18.0,85,0.00,,,0.00,VWS V14.01,2013-03-17 10:30:00,
2013-03-17 05:35:00,7.9,4.3,29.96,ESE,118,10.0,22.0,85,0.00,,,0.00,VWS V14.01,2013-03-17 10:35:00,
2013-03-17 05:40:00,8.0,4.4,29.96,ESE,104,8.0,22.0,85,0.00,,,0.00,VWS V14.01,2013-03-17 10:40:00,
2013-03-17 05:45:00,8.1,4.5,29.96,SE,146,8.0,22.0,85,0.00,,,0.00,VWS V14.01,2013-03-17 10:45:00,
2013-03-17 05:50:00,8.1,4.5,29.95,ESE,121,7.0,17.0,85,0.00,,,0.00,VWS V14.01,2013-03-17 10:50:00,
2013-03-17 05:55:00,8.2,4.8,29.95,SE,140,9.0,19.0,86,0.00,,,0.00,VWS V14.01,2013-03-17 10:55:00,
2013-03-17 06:00:00,8.3,4.9,29.94,SE,136,12.0,21.0,86,0.00,,,0.00,VWS V14.01,2013-03-17 11:00:00,
2013-03-17 06:05:00,8.5,5.1,29.94,SE,134,17.0,21.0,86,0.00,,,0.00,VWS V14.01,2013-03-17 11:05:00,
2013-03-17 06:10:00,8.5,5.1,29.94,SSE,148,11.0,24.0,86,0.00,,,0.00,VWS V14.01,2013-03-17 11:10:00,
2013-03-17 06:15:00,8.6,5.2,29.93,SE,133,17.0,24.0,86,0.00,,,0.00,VWS V14.01,2013-03-17 11:15:00,
2013-03-17 06:20:00,8.7,5.3,29.93,SE,146,8.0,18.0,86,0.00,,,0.00,VWS V14.01,2013-03-17 11:20:00,
2013-03-17 06:25:00,8.7,5.3,29.92,ESE,119,14.0,23.0,86,0.00,,,0.00,VWS V14.01,2013-03-17 11:25:00,
2013-03-17 06:30:00,8.7,5.3,29.92,SE,130,15.0,23.0,86,0.00,,,0.00,VWS V14.01,2013-03-17 11:30:00,
2013-03-17 06:35:00,8.7,5.3,29.91,SE,145,12.0,21.0,86,0.00,,,0.00,VWS V14.01,2013-03-17 11:35:00,
2013-03-17 06:40:00,8.7,5.3,29.91,SE,146,12.0,23.0,86,0.00,,,0.00,VWS V14.01,2013-03-17 11:40:00,
2013-03-17 06:45:00,8.7,5.3,29.91,SE,138,8.0,24.0,86,0.00,,,0.00,VWS V14.01,2013-03-17 11:45:00,
2013-03-17 06:50:00,8.7,5.3,29.90,SSE,150,11.0,20.0,86,0.00,,,0.00,VWS V14.01,2013-03-17 11:50:00,
2013-03-17 06:55:00,8.7,5.3,29.90,ESE,121,14.0,22.0,86,0.00,,,0.00,VWS V14.01,2013-03-17 11:55:00,
2013-03-17 07:00:00,8.8,5.7,29.90,SE,129,15.0,22.0,87,0.00,,,0.00,VWS V14.01,2013-03-17 12:00:00,
2013-03-17 07:05:00,8.8,5.4,29.90,SE,144,11.0,19.0,86,0.00,,,0.00,VWS V14.01,2013-03-17 12:05:00,
2013-03-17 07:10:00,8.8,5.7,29.90,SE,136,6.0,20.0,87,0.00,,,0.00,VWS V14.01,2013-03-17 12:10:00,
2013-03-17 07:15:00,8.9,5.8,29.89,SSE,155,12.0,22.0,87,0.00,,,0.00,VWS V14.01,2013-03-17 12:15:00,
2013-03-17 07:20:00,9.0,5.8,29.89,ESE,104,12.0,19.0,87,0.00,,,0.00,VWS V14.01,2013-03-17 12:20:00,
2013-03-17 07:25:00,9.0,5.6,29.88,ESE,114,17.0,19.0,86,0.00,,,0.00,VWS V14.01,2013-03-17 12:25:00,
2013-03-17 07:30:00,9.0,5.6,29.88,SE,126,9.0,23.0,86,0.00,,,0.00,VWS V14.01,2013-03-17 12:30:00,
2013-03-17 07:35:00,9.0,5.6,29.87,SE,131,6.0,6.0,86,0.00,,,0.00,VWS V14.01,2013-03-17 12:35:00,
2013-03-17 07:40:00,9.1,5.7,29.87,SE,129,11.0,21.0,86,0.00,,,0.00,VWS V14.01,2013-03-17 12:40:00,
2013-03-17 07:45:00,9.2,5.8,29.86,SSE,153,12.0,23.0,86,0.00,,,0.00,VWS V14.01,2013-03-17 12:45:00,
2013-03-17 07:50:00,9.3,5.9,29.86,ESE,114,14.0,22.0,86,0.00,,,0.00,VWS V14.01,2013-03-17 12:50:00,
2013-03-17 07:55:00,9.4,6.0,29.86,SSE,150,10.0,22.0,86,0.00,,,0.00,VWS V14.01,2013-03-17 12:55:00,
2013-03-17 08:00:00,9.4,6.0,29.85,SSE,150,14.0,22.0,86,0.00,,,0.00,VWS V14.01,2013-03-17 13:00:00,
2013-03-17 08:05:00,9.5,6.1,29.85,SSE,149,14.0,21.0,86,0.00,,,0.00,VWS V14.01,2013-03-17 13:05:00,
2013-03-17 08:10:00,9.5,6.1,29.85,ESE,113,15.0,24.0,86,0.00,,,0.00,VWS V14.01,2013-03-17 13:10:00,
2013-03-17 08:15:00,9.6,6.2,29.84,SE,130,15.0,24.0,86,0.00,,,0.00,VWS V14.01,2013-03-17 13:15:00,
2013-03-17 08:20:00,9.6,6.2,29.84,SE,142,12.0,21.0,86,0.00,,,0.00,VWS V14.01,2013-03-17 13:20:00,
2013-03-17 08:25:00,9.7,6.3,29.83,SSE,162,15.0,23.0,86,0.00,,,0.00,VWS V14.01,2013-03-17 13:25:00,
2013-03-17 08:30:00,9.8,6.6,29.83,SE,130,15.0,24.0,87,0.00,,,0.00,VWS V14.01,2013-03-17 13:30:00,
2013-03-17 08:35:00,9.9,6.7,29.82,SE,132,12.0,21.0,87,0.00,,,0.00,VWS V14.01,2013-03-17 13:35:00,
2013-03-17 08:40:00,9.9,6.7,29.82,SE,124,10.0,22.0,87,0.00,,,0.00,VWS V14.01,2013-03-17 13:40:00,
2013-03-17 08:45:00,10.0,6.8,29.82,SE,126,12.0,23.0,87,0.00,,,0.00,VWS V14.01,2013-03-17 13:45:00,
2013-03-17 08:50:00,10.1,6.9,29.81,SE,141,17.0,19.0,87,0.00,,,0.00,VWS V14.01,2013-03-17 13:50:00,
2013-03-17 08:55:00,10.1,6.9,29.81,SE,146,11.0,27.0,87,0.00,,,0.00,VWS V14.01,2013-03-17 13:55:00,
2013-03-17 09:00:00,10.1,6.9,29.81,SSE,150,16.0,27.0,87,0.00,,,0.00,VWS V14.01,2013-03-17 14:00:00,
2013-03-17 09:05:00,10.1,6.9,29.81,SSE,165,10.0,21.0,87,0.00,,,0.00,VWS V14.01,2013-03-17 14:05:00,
2013-03-17 09:10:00,10.1,6.9,29.82,SSE,150,14.0,22.0,87,0.00,,,0.00,VWS V14.01,2013-03-17 14:10:00,
2013-03-17 09:15:00,10.0,6.8,29.81,ESE,115,14.0,22.0,87,0.00,,,0.00,VWS V14.01,2013-03-17 14:15:00,
2013-03-17 09:20:00,10.0,6.8,29.81,SE,132,8.0,19.0,87,0.00,,,0.00,VWS V14.01,2013-03-17 14:20:00,
2013-03-17 09:25:00,10.0,6.8,29.80,SE,134,14.0,21.0,87,0.00,,,0.00,VWS V14.01,2013-03-17 14:25:00,
2013-03-17 09:30:00,10.1,6.9,29.80,SSE,155,6.0,21.0,87,0.00,,,0.00,VWS V14.01,2013-03-17 14:30:00,
2013-03-17 09:35:00,10.3,7.4,29.80,ESE,116,5.0,23.0,88,0.00,,,0.00,VWS V14.01,2013-03-17 14:35:00,
2013-03-17 09:40:00,10.4,7.2,29.80,SE,140,12.0,23.0,87,0.00,,,0.00,VWS V14.01,2013-03-17 14:40:00,
2013-03-17 09:45:00,10.5,7.3,29.79,SSE,164,11.0,24.0,87,0.00,,,0.00,VWS V14.01,2013-03-17 14:45:00,
2013-03-17 09:50:00,10.6,7.4,29.79,SSE,157,9.0,23.0,87,0.00,,,0.00,VWS V14.01,2013-03-17 14:50:00,
2013-03-17 09:55:00,10.7,7.5,29.79,SE,133,13.0,23.0,87,0.00,,,0.00,VWS V14.01,2013-03-17 14:55:00,
2013-03-17 10:00:00,10.8,7.6,29.78,SSE,151,11.0,23.0,87,0.00,,,0.00,VWS V14.01,2013-03-17 15:00:00,
2013-03-17 10:05:00,10.9,7.7,29.78,SE,131,8.0,21.0,87,0.00,,,0.00,VWS V14.01,2013-03-17 15:05:00,
2013-03-17 10:10:00,11.0,7.8,29.78,SE,144,9.0,21.0,87,0.00,,,0.00,VWS V14.01,2013-03-17 15:10:00,
2013-03-17 10:15:00,11.1,7.9,29.78,ESE,121,15.0,23.0,87,0.00,,,0.00,VWS V14.01,2013-03-17 15:15:00,
2013-03-17 10:20:00,11.2,8.0,29.78,ESE,109,17.0,23.0,87,0.00,,,0.00,VWS V14.01,2013-03-17 15:20:00,
2013-03-17 10:25:00,11.6,8.4,29.77,East,94,13.0,23.0,87,0.00,,,0.00,VWS V14.01,2013-03-17 15:25:00,
2013-03-17 10:30:00,11.9,8.7,29.77,SE,128,22.0,23.0,87,0.00,,,0.00,VWS V14.01,2013-03-17 15:30:00,
2013-03-17 10:35:00,12.1,8.9,29.77,SE,134,11.0,16.0,87,0.00,,,0.00,VWS V14.01,2013-03-17 15:35:00,
2013-03-17 10:40:00,12.1,8.9,29.76,SSE,148,14.0,20.0,87,0.00,,,0.00,VWS V14.01,2013-03-17 15:40:00,
2013-03-17 10:45:00,12.2,9.0,29.76,SSE,148,14.0,25.0,87,0.00,,,0.00,VWS V14.01,2013-03-17 15:45:00,
2013-03-17 10:50:00,12.3,9.1,29.76,SE,144,6.0,21.0,87,0.00,,,0.00,VWS V14.01,2013-03-17 15:50:00,
2013-03-17 10:55:00,12.4,9.2,29.75,ESE,117,10.0,23.0,87,0.00,,,0.00,VWS V14.01,2013-03-17 15:55:00,
2013-03-17 11:00:00,12.4,8.9,29.75,SE,133,11.0,23.0,86,0.00,,,0.00,VWS V14.01,2013-03-17 16:00:00,
2013-03-17 11:05:00,12.6,9.4,29.75,East,100,11.0,20.0,87,0.00,,,0.00,VWS V14.01,2013-03-17 16:05:00,
2013-03-17 11:10:00,12.5,9.0,29.74,SE,132,15.0,23.0,86,0.00,,,0.00,VWS V14.01,2013-03-17 16:10:00,
2013-03-17 11:15:00,12.6,9.1,29.74,SSE,150,14.0,23.0,86,0.00,,,0.00,VWS V14.01,2013-03-17 16:15:00,
2013-03-17 11:20:00,12.7,9.2,29.74,South,171,12.0,17.0,86,0.00,,,0.00,VWS V14.01,2013-03-17 16:20:00,
2013-03-17 11:25:00,12.6,9.1,29.73,SE,140,17.0,24.0,86,0.00,,,0.00,VWS V14.01,2013-03-17 16:25:00,
2013-03-17 11:30:00,12.8,9.3,29.74,SE,131,10.0,24.0,86,0.00,,,0.00,VWS V14.01,2013-03-17 16:30:00,
2013-03-17 11:35:00,13.0,9.5,29.73,SE,132,11.0,21.0,86,0.00,,,0.00,VWS V14.01,2013-03-17 16:35:00,
2013-03-17 11:40:00,13.1,9.6,29.72,SE,128,9.0,21.0,86,0.00,,,0.00,VWS V14.01,2013-03-17 16:40:00,
2013-03-17 11:45:00,13.4,9.9,29.72,SE,132,12.0,23.0,86,0.00,,,0.00,VWS V14.01,2013-03-17 16:45:00,
2013-03-17 11:50:00,13.2,9.7,29.72,SE,146,14.0,23.0,86,0.00,,,0.00,VWS V14.01,2013-03-17 16:50:00,
2013-03-17 11:55:00,13.4,9.9,29.71,ESE,119,17.0,23.0,86,0.00,,,0.00,VWS V14.01,2013-03-17 16:55:00,
2013-03-17 12:00:00,13.5,10.0,29.71,ESE,115,11.0,23.0,86,0.00,,,0.00,VWS V14.01,2013-03-17 17:00:00,
2013-03-17 12:05:00,13.7,10.2,29.71,SE,129,10.0,19.0,86,0.00,,,0.00,VWS V14.01,2013-03-17 17:05:00,
2013-03-17 12:10:00,13.9,10.4,29.70,SE,141,8.0,20.0,86,0.00,,,0.00,VWS V14.01,2013-03-17 17:10:00,
2013-03-17 12:15:00,14.2,10.7,29.70,East,97,11.0,23.0,86,0.00,,,0.00,VWS V14.01,2013-03-17 17:15:00,
2013-03-17 12:20:00,14.6,11.1,29.70,SE,127,15.0,18.0,86,0.00,,,0.00,VWS V14.01,2013-03-17 17:20:00,
2013-03-17 12:25:00,14.6,10.8,29.70,SE,130,6.0,19.0,85,0.00,,,0.00,VWS V14.01,2013-03-17 17:25:00,
2013-03-17 12:30:00,14.6,10.8,29.69,SE,140,17.0,25.0,85,0.00,,,0.00,VWS V14.01,2013-03-17 17:30:00,
2013-03-17 12:35:00,14.8,11.3,29.69,ESE,115,11.0,18.0,86,0.00,,,0.00,VWS V14.01,2013-03-17 17:35:00,
2013-03-17 12:40:00,15.1,11.3,29.69,SE,129,12.0,22.0,85,0.00,,,0.00,VWS V14.01,2013-03-17 17:40:00,
2013-03-17 12:45:00,15.1,11.3,29.69,SE,138,10.0,22.0,85,0.00,,,0.00,VWS V14.01,2013-03-17 17:45:00,
2013-03-17 12:50:00,15.0,11.2,29.69,SE,126,6.0,22.0,85,0.00,,,0.00,VWS V14.01,2013-03-17 17:50:00,
2013-03-17 12:55:00,15.2,11.4,29.69,SE,128,10.0,22.0,85,0.00,,,0.00,VWS V14.01,2013-03-17 17:55:00,
2013-03-17 13:00:00,15.3,11.8,29.68,SSE,167,10.0,22.0,86,0.00,,,0.00,VWS V14.01,2013-03-17 18:00:00,
2013-03-17 13:05:00,15.5,12.0,29.68,SE,146,17.0,21.0,86,0.00,,,0.00,VWS V14.01,2013-03-17 18:05:00,
2013-03-17 13:10:00,15.4,11.6,29.68,SE,135,12.0,21.0,85,0.00,,,0.00,VWS V14.01,2013-03-17 18:10:00,
2013-03-17 13:15:00,15.7,12.2,29.67,SE,125,11.0,21.0,86,0.00,,,0.00,VWS V14.01,2013-03-17 18:15:00,
2013-03-17 13:20:00,16.1,12.6,29.67,SE,138,10.0,19.0,86,0.00,,,0.00,VWS V14.01,2013-03-17 18:20:00,
2013-03-17 13:25:00,16.1,12.6,29.66,SSE,153,11.0,24.0,86,0.00,,,0.00,VWS V14.01,2013-03-17 18:25:00,
2013-03-17 13:30:00,16.3,12.8,29.66,SE,133,14.0,24.0,86,0.00,,,0.00,VWS V14.01,2013-03-17 18:30:00,
2013-03-17 13:35:00,16.4,12.9,29.66,SE,138,12.0,18.0,86,0.00,,,0.00,VWS V14.01,2013-03-17 18:35:00,
2013-03-17 13:40:00,16.6,12.8,29.65,SE,124,9.0,20.0,85,0.00,,,0.00,VWS V14.01,2013-03-17 18:40:00,
2013-03-17 13:45:00,16.4,12.6,29.65,ESE,122,16.0,23.0,85,0.00,,,0.00,VWS V14.01,2013-03-17 18:45:00,
2013-03-17 13:50:00,16.5,13.0,29.64,SE,128,11.0,22.0,86,0.00,,,0.00,VWS V14.01,2013-03-17 18:50:00,
2013-03-17 13:55:00,16.6,13.1,29.64,ESE,103,8.0,22.0,86,0.00,,,0.00,VWS V14.01,2013-03-17 18:55:00,
2013-03-17 14:00:00,16.7,12.9,29.63,SE,146,12.0,22.0,85,0.00,,,0.00,VWS V14.01,2013-03-17 19:00:00,
2013-03-17 14:05:00,16.8,13.3,29.63,SE,134,7.0,19.0,86,0.00,,,0.00,VWS V14.01,2013-03-17 19:05:00,
2013-03-17 14:10:00,16.7,12.9,29.62,East,90,8.0,20.0,85,0.00,,,0.00,VWS V14.01,2013-03-17 19:10:00,
2013-03-17 14:15:00,16.6,12.8,29.62,SSE,155,9.0,23.0,85,0.00,,,0.00,VWS V14.01,2013-03-17 19:15:00,
2013-03-17 14:20:00,16.7,12.9,29.61,ESE,122,10.0,24.0,85,0.00,,,0.00,VWS V14.01,2013-03-17 19:20:00,
2013-03-17 14:25:00,16.8,13.0,29.61,SE,134,7.0,24.0,85,0.00,,,0.00,VWS V14.01,2013-03-17 19:25:00,
2013-03-17 14:30:00,16.9,13.1,29.60,SE,141,19.0,24.0,85,0.00,,,0.00,VWS V14.01,2013-03-17 19:30:00,
2013-03-17 14:35:00,16.6,12.8,29.60,SSE,153,12.0,22.0,85,0.00,,,0.00,VWS V14.01,2013-03-17 19:35:00,
2013-03-17 14:40:00,16.6,12.8,29.60,SE,133,15.0,26.0,85,0.00,,,0.00,VWS V14.01,2013-03-17 19:40:00,
2013-03-17 14:45:00,16.8,13.3,29.61,SE,138,14.0,26.0,86,0.00,,,0.00,VWS V14.01,2013-03-17 19:45:00,
2013-03-17 14:50:00,16.7,12.9,29.60,SE,134,6.0,24.0,85,0.00,,,0.00,VWS V14.01,2013-03-17 19:50:00,
2013-03-17 14:55:00,16.8,13.3,29.60,SE,141,13.0,25.0,86,0.00,,,0.00,VWS V14.01,2013-03-17 19:55:00,
2013-03-17 15:00:00,16.8,13.3,29.60,SE,138,17.0,25.0,86,0.00,,,0.00,VWS V14.01,2013-03-17 20:00:00,
2013-03-17 15:05:00,16.8,13.3,29.59,ESE,114,9.0,19.0,86,0.00,,,0.00,VWS V14.01,2013-03-17 20:05:00,
2013-03-17 15:10:00,16.8,13.3,29.59,SE,133,7.0,19.0,86,0.00,,,0.00,VWS V14.01,2013-03-17 20:10:00,
2013-03-17 15:15:00,16.9,13.4,29.59,SE,134,10.0,21.0,86,0.00,,,0.00,VWS V14.01,2013-03-17 20:15:00,
2013-03-17 15:20:00,16.9,13.4,29.59,ESE,107,9.0,21.0,86,0.00,,,0.00,VWS V14.01,2013-03-17 20:20:00,
2013-03-17 15:25:00,17.1,13.6,29.58,SE,142,13.0,21.0,86,0.00,,,0.00,VWS V14.01,2013-03-17 20:25:00,
2013-03-17 15:30:00,17.3,13.8,29.58,East,82,8.0,21.0,86,0.00,,,0.00,VWS V14.01,2013-03-17 20:30:00,
2013-03-17 15:35:00,17.4,13.9,29.58,SE,138,8.0,18.0,86,0.00,,,0.00,VWS V14.01,2013-03-17 20:35:00,
2013-03-17 15:40:00,17.6,14.1,29.58,SE,128,10.0,18.0,86,0.00,,,0.00,VWS V14.01,2013-03-17 20:40:00,
2013-03-17 15:45:00,17.8,14.2,29.57,ESE,119,12.0,21.0,86,0.00,,,0.00,VWS V14.01,2013-03-17 20:45:00,
2013-03-17 15:50:00,17.8,14.2,29.57,ESE,117,10.0,18.0,86,0.00,,,0.00,VWS V14.01,2013-03-17 20:50:00,
2013-03-17 15:55:00,17.9,14.4,29.57,SE,128,12.0,22.0,86,0.00,,,0.00,VWS V14.01,2013-03-17 20:55:00,
2013-03-17 16:00:00,18.1,14.6,29.57,SE,142,5.0,22.0,86,0.00,,,0.00,VWS V14.01,2013-03-17 21:00:00,
2013-03-17 16:05:00,18.1,14.6,29.56,SE,142,9.0,18.0,86,0.00,,,0.00,VWS V14.01,2013-03-17 21:05:00,
2013-03-17 16:10:00,18.2,14.6,29.56,ESE,105,9.0,18.0,86,0.00,,,0.00,VWS V14.01,2013-03-17 21:10:00,
2013-03-17 16:15:00,18.4,15.1,29.56,SE,134,8.0,18.0,87,0.00,,,0.00,VWS V14.01,2013-03-17 21:15:00,
2013-03-17 16:20:00,18.6,15.3,29.55,ESE,109,11.0,17.0,87,0.00,,,0.00,VWS V14.01,2013-03-17 21:20:00,
2013-03-17 16:25:00,18.6,15.0,29.55,SE,131,14.0,23.0,86,0.00,,,0.00,VWS V14.01,2013-03-17 21:25:00,
2013-03-17 16:30:00,18.6,15.3,29.55,SE,134,14.0,23.0,87,0.00,,,0.00,VWS V14.01,2013-03-17 21:30:00,
2013-03-17 16:35:00,18.7,15.4,29.55,SE,124,8.0,20.0,87,0.00,,,0.00,VWS V14.01,2013-03-17 21:35:00,
2013-03-17 16:40:00,18.8,15.5,29.55,SE,141,13.0,21.0,87,0.00,,,0.00,VWS V14.01,2013-03-17 21:40:00,
2013-03-17 16:45:00,18.7,15.4,29.55,SE,126,16.0,21.0,87,0.00,,,0.00,VWS V14.01,2013-03-17 21:45:00,
2013-03-17 16:50:00,18.7,15.4,29.55,SE,130,10.0,21.0,87,0.00,,,0.00,VWS V14.01,2013-03-17 21:50:00,
2013-03-17 16:55:00,18.6,15.6,29.54,SSE,159,13.0,21.0,88,0.00,,,0.00,VWS V14.01,2013-03-17 21:55:00,
2013-03-17 17:00:00,18.5,15.5,29.54,ESE,107,5.0,21.0,88,0.00,,,0.00,VWS V14.01,2013-03-17 22:00:00,
2013-03-17 17:05:00,18.6,15.6,29.54,ESE,109,9.0,15.0,88,0.00,,,0.00,VWS V14.01,2013-03-17 22:05:00,
2013-03-17 17:10:00,18.5,15.5,29.54,SE,124,12.0,19.0,88,0.00,,,0.00,VWS V14.01,2013-03-17 22:10:00,
2013-03-17 17:15:00,18.4,15.6,29.54,ESE,122,7.0,19.0,89,0.00,,,0.00,VWS V14.01,2013-03-17 22:15:00,
2013-03-17 17:20:00,18.4,15.6,29.54,SE,128,5.0,14.0,89,0.00,,,0.00,VWS V14.01,2013-03-17 22:20:00,
2013-03-17 17:25:00,18.5,15.7,29.54,ESE,121,7.0,14.0,89,0.00,,,0.00,VWS V14.01,2013-03-17 22:25:00,
2013-03-17 17:30:00,18.5,15.7,29.54,ESE,108,5.0,14.0,89,0.00,,,0.00,VWS V14.01,2013-03-17 22:30:00,
2013-03-17 17:35:00,18.4,15.6,29.54,East,91,13.0,13.0,89,0.00,,,0.00,VWS V14.01,2013-03-17 22:35:00,
2013-03-17 17:40:00,18.4,15.6,29.54,ESE,123,7.0,13.0,89,0.00,,,0.00,VWS V14.01,2013-03-17 22:40:00,
2013-03-17 17:45:00,18.4,15.9,29.54,ESE,122,3.0,15.0,90,0.00,,,0.00,VWS V14.01,2013-03-17 22:45:00,
2013-03-17 17:50:00,18.4,15.9,29.54,SE,130,7.0,16.0,90,0.00,,,0.00,VWS V14.01,2013-03-17 22:50:00,
2013-03-17 17:55:00,18.5,16.0,29.55,East,96,6.0,16.0,90,0.00,,,0.00,VWS V14.01,2013-03-17 22:55:00,
2013-03-17 18:00:00,18.3,15.8,29.54,ESE,110,5.0,16.0,90,0.00,,,0.00,VWS V14.01,2013-03-17 23:00:00,
2013-03-17 18:05:00,18.1,15.6,29.55,ESE,115,11.0,11.0,90,0.00,,,0.00,VWS V14.01,2013-03-17 23:05:00,
2013-03-17 18:10:00,17.9,15.4,29.55,East,100,7.0,13.0,90,0.00,,,0.00,VWS V14.01,2013-03-17 23:10:00,
2013-03-17 18:15:00,17.8,15.3,29.54,East,101,2.0,13.0,90,0.00,,,0.00,VWS V14.01,2013-03-17 23:15:00,
2013-03-17 18:20:00,17.9,15.4,29.54,ESE,106,5.0,8.0,90,0.00,,,0.00,VWS V14.01,2013-03-17 23:20:00,
2013-03-17 18:25:00,17.9,15.4,29.54,East,92,6.0,12.0,90,0.00,,,0.00,VWS V14.01,2013-03-17 23:25:00,
2013-03-17 18:30:00,18.0,15.8,29.54,East,89,5.0,12.0,91,0.00,,,0.00,VWS V14.01,2013-03-17 23:30:00,
2013-03-17 18:35:00,18.0,15.8,29.54,East,84,5.0,7.0,91,0.00,,,0.00,VWS V14.01,2013-03-17 23:35:00,
2013-03-17 18:40:00,17.9,15.6,29.55,East,87,7.0,9.0,91,0.00,,,0.00,VWS V14.01,2013-03-17 23:40:00,
2013-03-17 18:45:00,17.6,15.4,29.55,East,80,5.0,9.0,91,0.00,,,0.00,VWS V14.01,2013-03-17 23:45:00,
2013-03-17 18:50:00,17.5,15.2,29.55,East,80,8.0,8.0,91,0.00,,,0.00,VWS V14.01,2013-03-17 23:50:00,
2013-03-17 18:55:00,17.1,14.9,29.55,ENE,76,8.0,10.0,91,0.00,,,0.00,VWS V14.01,2013-03-17 23:55:00,
2013-03-17 19:00:00,17.0,14.8,29.55,ENE,78,7.0,10.0,91,0.00,,,0.00,VWS V14.01,2013-03-18 00:00:00,
2013-03-17 19:05:00,16.8,14.6,29.55,East,82,6.0,9.0,91,0.00,,,0.00,VWS V14.01,2013-03-18 00:05:00,
2013-03-17 19:10:00,16.7,14.5,29.55,East,88,3.0,10.0,91,0.00,,,0.00,VWS V14.01,2013-03-18 00:10:00,
2013-03-17 19:15:00,16.6,14.4,29.54,East,82,9.0,10.0,91,0.00,,,0.00,VWS V14.01,2013-03-18 00:15:00,
2013-03-17 19:20:00,16.5,14.3,29.54,East,100,6.0,10.0,91,0.00,,,0.00,VWS V14.01,2013-03-18 00:20:00,
2013-03-17 19:25:00,16.4,14.2,29.54,East,93,6.0,11.0,91,0.00,,,0.00,VWS V14.01,2013-03-18 00:25:00,
2013-03-17 19:30:00,16.4,14.2,29.54,East,81,9.0,11.0,91,0.00,,,0.00,VWS V14.01,2013-03-18 00:30:00,
2013-03-17 19:35:00,16.4,14.2,29.54,East,84,6.0,9.0,91,0.00,,,0.00,VWS V14.01,2013-03-18 00:35:00,
2013-03-17 19:40:00,16.4,14.2,29.54,East,86,8.0,10.0,91,0.00,,,0.00,VWS V14.01,2013-03-18 00:40:00,
2013-03-17 19:45:00,16.4,14.2,29.54,East,82,8.0,10.0,91,0.00,,,0.00,VWS V14.01,2013-03-18 00:45:00,
2013-03-17 19:50:00,16.4,14.2,29.54,East,86,5.0,9.0,91,0.00,,,0.00,VWS V14.01,2013-03-18 00:50:00,
2013-03-17 19:55:00,16.3,14.1,29.54,East,97,5.0,9.0,91,0.00,,,0.00,VWS V14.01,2013-03-18 00:55:00,
2013-03-17 20:00:00,16.2,14.0,29.55,East,87,7.0,9.0,91,0.00,,,0.00,VWS V14.01,2013-03-18 01:00:00,
2013-03-17 20:05:00,16.1,13.9,29.55,East,85,3.0,9.0,91,0.00,,,0.00,VWS V14.01,2013-03-18 01:05:00,
2013-03-17 20:10:00,16.0,13.8,29.55,East,92,3.0,9.0,91,0.00,,,0.00,VWS V14.01,2013-03-18 01:10:00,
2013-03-17 20:15:00,15.9,13.7,29.55,East,81,6.0,10.0,91,0.00,,,0.00,VWS V14.01,2013-03-18 01:15:00,
2013-03-17 20:20:00,15.9,13.7,29.55,East,88,7.0,9.0,91,0.00,,,0.00,VWS V14.01,2013-03-18 01:20:00,
2013-03-17 20:25:00,15.9,13.7,29.55,ENE,72,3.0,9.0,91,0.00,,,0.00,VWS V14.01,2013-03-18 01:25:00,
2013-03-17 20:30:00,15.8,13.6,29.55,East,80,6.0,9.0,91,0.00,,,0.00,VWS V14.01,2013-03-18 01:30:00,
2013-03-17 20:35:00,15.8,13.6,29.55,ENE,78,3.0,8.0,91,0.00,,,0.00,VWS V14.01,2013-03-18 01:35:00,
2013-03-17 20:40:00,15.7,13.5,29.55,ENE,62,4.0,8.0,91,0.00,,,0.00,VWS V14.01,2013-03-18 01:40:00,
2013-03-17 20:45:00,15.6,13.4,29.55,ENE,62,1.0,8.0,91,0.00,,,0.00,VWS V14.01,2013-03-18 01:45:00,
2013-03-17 20:50:00,15.2,13.0,29.55,ENE,57,4.0,7.0,91,0.00,,,0.00,VWS V14.01,2013-03-18 01:50:00,
2013-03-17 20:55:00,14.7,12.5,29.55,ENE,57,3.0,9.0,91,0.00,,,0.00,VWS V14.01,2013-03-18 01:55:00,
2013-03-17 21:00:00,14.5,12.3,29.55,ENE,69,4.0,9.0,91,0.00,,,0.00,VWS V14.01,2013-03-18 02:00:00,
2013-03-17 21:05:00,14.4,12.2,29.55,ENE,64,3.0,8.0,91,0.00,,,0.00,VWS V14.01,2013-03-18 02:05:00,
2013-03-17 21:10:00,14.4,12.2,29.55,NE,47,2.0,8.0,91,0.00,,,0.00,VWS V14.01,2013-03-18 02:10:00,
2013-03-17 21:15:00,14.3,12.1,29.55,NE,48,2.0,8.0,91,0.00,,,0.00,VWS V14.01,2013-03-18 02:15:00,
2013-03-17 21:20:00,14.4,12.2,29.55,ENE,58,1.0,7.0,91,0.00,,,0.00,VWS V14.01,2013-03-18 02:20:00,
2013-03-17 21:25:00,14.4,12.2,29.55,ENE,58,4.0,7.0,91,0.00,,,0.00,VWS V14.01,2013-03-18 02:25:00,
2013-03-17 21:30:00,14.4,12.2,29.55,ENE,58,2.0,7.0,91,0.00,,,0.00,VWS V14.01,2013-03-18 02:30:00,
2013-03-17 21:35:00,14.4,12.2,29.55,NE,55,0.0,7.0,91,0.00,,,0.00,VWS V14.01,2013-03-18 02:35:00,
2013-03-17 21:39:00,14.3,12.1,29.55,NE,55,1.0,7.0,91,0.00,,,0.00,VWS V14.01,2013-03-18 02:39:00,
2013-03-17 21:44:00,14.3,12.1,29.55,NE,55,1.0,7.0,91,0.00,,,0.00,VWS V14.01,2013-03-18 02:44:00,
2013-03-17 21:45:00,15.6,13.4,29.55,ENE,59,4.0,8.0,91,0.00,,,0.00,VWS V14.01,2013-03-18 02:45:00,
2013-03-17 21:49:00,14.3,12.1,29.55,NE,55,1.0,4.0,91,0.00,,,0.00,VWS V14.01,2013-03-18 02:49:00,
2013-03-17 21:54:00,14.3,12.1,29.55,NE,47,0.0,5.0,91,0.00,,,0.00,VWS V14.01,2013-03-18 02:54:00,
2013-03-17 21:59:00,14.4,12.2,29.55,NE,47,3.0,5.0,91,0.00,,,0.00,VWS V14.01,2013-03-18 02:59:00,
2013-03-17 22:00:00,14.5,12.3,29.55,ENE,61,3.0,9.0,91,0.00,,,0.00,VWS V14.01,2013-03-18 03:00:00,
2013-03-17 22:04:00,14.4,12.2,29.55,NE,47,1.0,3.0,91,0.00,,,0.00,VWS V14.01,2013-03-18 03:04:00,
2013-03-17 22:09:00,14.4,12.2,29.55,NE,47,2.0,4.0,91,0.00,,,0.00,VWS V14.01,2013-03-18 03:09:00,
2013-03-17 22:14:00,14.3,12.1,29.55,NE,47,3.0,4.0,91,0.00,,,0.00,VWS V14.01,2013-03-18 03:14:00,
2013-03-17 22:15:00,14.4,12.2,29.55,NE,48,4.0,8.0,91,0.00,,,0.00,VWS V14.01,2013-03-18 03:15:00,
2013-03-17 22:19:00,14.3,12.1,29.55,NE,44,0.0,5.0,91,0.00,,,0.00,VWS V14.01,2013-03-18 03:19:00,
2013-03-17 22:24:00,14.3,12.1,29.55,NE,44,1.0,5.0,91,0.00,,,0.00,VWS V14.01,2013-03-18 03:24:00,
2013-03-17 22:29:00,14.3,12.1,29.55,NE,44,2.0,5.0,91,0.00,,,0.00,VWS V14.01,2013-03-18 03:29:00,
2013-03-17 22:30:00,14.4,12.2,29.55,ENE,58,4.0,7.0,91,0.00,,,0.00,VWS V14.01,2013-03-18 03:30:00,
2013-03-17 22:34:00,14.3,12.1,29.55,NE,40,2.0,5.0,91,0.00,,,0.00,VWS V14.01,2013-03-18 03:34:00,
2013-03-17 22:39:00,14.2,12.0,29.56,NE,36,2.0,5.0,91,0.00,,,0.00,VWS V14.01,2013-03-18 03:39:00,
2013-03-17 22:44:00,14.1,11.9,29.56,NE,36,2.0,5.0,91,0.00,,,0.00,VWS V14.01,2013-03-18 03:44:00,
2013-03-17 22:45:00,14.3,12.1,29.55,NE,55,1.0,7.0,91,0.00,,,0.00,VWS V14.01,2013-03-18 03:45:00,
2013-03-17 22:49:00,14.1,11.9,29.56,NE,36,0.0,3.0,91,0.00,,,0.00,VWS V14.01,2013-03-18 03:49:00,
2013-03-17 22:54:00,14.1,11.9,29.56,NE,36,0.0,3.0,91,0.00,,,0.00,VWS V14.01,2013-03-18 03:54:00,
2013-03-17 22:59:00,14.0,11.8,29.56,NNE,24,0.0,4.0,91,0.00,,,0.00,VWS V14.01,2013-03-18 03:59:00,
2013-03-17 23:00:00,14.0,11.8,29.56,NNE,24,0.0,4.0,91,0.00,,,0.00,VWS V14.01,2013-03-18 04:00:00,
2013-03-17 23:05:00,13.8,11.6,29.56,NNE,14,1.0,3.0,91,0.00,,,0.00,VWS V14.01,2013-03-18 04:05:00,
2013-03-17 23:10:00,13.7,11.5,29.56,NNE,14,1.0,4.0,91,0.00,,,0.00,VWS V14.01,2013-03-18 04:10:00,
2013-03-17 23:15:00,13.7,11.5,29.56,NNE,14,1.0,4.0,91,0.00,,,0.00,VWS V14.01,2013-03-18 04:15:00,
2013-03-17 23:20:00,13.6,11.4,29.57,NNE,14,0.0,3.0,91,0.00,,,0.00,VWS V14.01,2013-03-18 04:20:00,
2013-03-17 23:25:00,13.6,11.4,29.57,North,360,1.0,6.0,91,0.00,,,0.00,VWS V14.01,2013-03-18 04:25:00,
2013-03-17 23:30:00,13.5,11.3,29.57,NNW,340,4.0,6.0,91,0.00,,,0.00,VWS V14.01,2013-03-18 04:30:00,
2013-03-17 23:35:00,13.5,11.3,29.57,NNW,329,2.0,5.0,91,0.00,,,0.00,VWS V14.01,2013-03-18 04:35:00,
2013-03-17 23:40:00,13.4,11.2,29.57,NNW,327,2.0,6.0,91,0.00,,,0.00,VWS V14.01,2013-03-18 04:40:00,
2013-03-17 23:45:00,13.3,11.1,29.57,NW,319,5.0,6.0,91,0.00,,,0.00,VWS V14.01,2013-03-18 04:45:00,
2013-03-17 23:50:00,13.2,11.0,29.58,NW,310,8.0,12.0,91,0.00,,,0.00,VWS V14.01,2013-03-18 04:50:00,
2013-03-17 23:55:00,13.1,10.9,29.59,NW,313,9.0,12.0,91,0.00,,,0.00,VWS V14.01,2013-03-18 04:55:00,